Year,Month,Day,Hour,Minute,Value (Times are PST for temperature in C)
2015,02,24,00,00,2.10
2015,02,24,00,01,2.10
2015,02,24,00,02,2.10
2015,02,24,00,03,2.10
2015,02,24,00,04,2.20
2015,02,24,00,05,2.20
2015,02,24,00,06,2.10
2015,02,24,00,07,2.10
2015,02,24,00,08,2.00
2015,02,24,00,09,1.90
2015,02,24,00,10,1.80
2015,02,24,00,11,1.70
2015,02,24,00,12,1.60
2015,02,24,00,13,1.60
2015,02,24,00,14,1.50
2015,02,24,00,15,1.50
2015,02,24,00,16,1.40
2015,02,24,00,17,1.40
2015,02,24,00,18,1.40
2015,02,24,00,19,1.40
2015,02,24,00,20,1.40
2015,02,24,00,21,1.40
2015,02,24,00,22,1.40
2015,02,24,00,23,1.40
2015,02,24,00,24,1.30
2015,02,24,00,25,1.30
2015,02,24,00,26,1.30
2015,02,24,00,27,1.30
2015,02,24,00,28,1.30
2015,02,24,00,29,1.40
2015,02,24,00,30,1.40
2015,02,24,00,31,1.40
2015,02,24,00,32,1.40
2015,02,24,00,33,1.40
2015,02,24,00,34,1.40
2015,02,24,00,35,1.40
2015,02,24,00,36,1.50
2015,02,24,00,37,1.50
2015,02,24,00,38,1.50
2015,02,24,00,39,1.50
2015,02,24,00,40,1.50
2015,02,24,00,41,1.60
2015,02,24,00,42,1.60
2015,02,24,00,43,1.60
2015,02,24,00,44,1.60
2015,02,24,00,45,1.60
2015,02,24,00,46,1.60
2015,02,24,00,47,1.50
2015,02,24,00,48,1.50
2015,02,24,00,49,1.50
2015,02,24,00,50,1.40
2015,02,24,00,51,1.40
2015,02,24,00,52,1.40
2015,02,24,00,53,1.40
2015,02,24,00,54,1.40
2015,02,24,00,55,1.40
2015,02,24,00,56,1.50
2015,02,24,00,57,1.50
2015,02,24,00,58,1.60
2015,02,24,00,59,1.60
2015,02,24,01,00,1.70
2015,02,24,01,01,1.70
2015,02,24,01,02,1.70
2015,02,24,01,03,1.70
2015,02,24,01,04,1.70
2015,02,24,01,05,1.70
2015,02,24,01,06,1.70
2015,02,24,01,07,1.70
2015,02,24,01,08,1.60
2015,02,24,01,09,1.60
2015,02,24,01,10,1.60
2015,02,24,01,11,1.70
2015,02,24,01,12,1.70
2015,02,24,01,13,1.70
2015,02,24,01,14,1.70
2015,02,24,01,15,1.70
2015,02,24,01,16,1.70
2015,02,24,01,17,1.60
2015,02,24,01,18,1.60
2015,02,24,01,19,1.60
2015,02,24,01,20,1.60
2015,02,24,01,21,1.50
2015,02,24,01,22,1.50
2015,02,24,01,23,1.50
2015,02,24,01,24,1.50
2015,02,24,01,25,1.50
2015,02,24,01,26,1.50
2015,02,24,01,27,1.50
2015,02,24,01,28,1.50
2015,02,24,01,29,1.50
2015,02,24,01,30,1.50
2015,02,24,01,31,1.50
2015,02,24,01,32,1.60
2015,02,24,01,33,1.60
2015,02,24,01,34,1.60
2015,02,24,01,35,1.70
2015,02,24,01,36,1.70
2015,02,24,01,37,1.70
2015,02,24,01,38,1.70
2015,02,24,01,39,1.70
2015,02,24,01,40,1.70
2015,02,24,01,41,1.70
2015,02,24,01,42,1.70
2015,02,24,01,43,1.70
2015,02,24,01,44,1.70
2015,02,24,01,45,1.80
2015,02,24,01,46,1.80
2015,02,24,01,47,1.80
2015,02,24,01,48,1.80
2015,02,24,01,49,1.80
2015,02,24,01,50,1.80
2015,02,24,01,51,1.80
2015,02,24,01,52,1.90
2015,02,24,01,53,1.80
2015,02,24,01,54,1.80
2015,02,24,01,55,1.80
2015,02,24,01,56,1.70
2015,02,24,01,57,1.60
2015,02,24,01,58,1.60
2015,02,24,01,59,1.50
2015,02,24,02,00,1.50
2015,02,24,02,01,1.50
2015,02,24,02,02,1.50
2015,02,24,02,03,1.40
2015,02,24,02,04,1.40
2015,02,24,02,05,1.30
2015,02,24,02,06,1.30
2015,02,24,02,07,1.30
2015,02,24,02,08,1.30
2015,02,24,02,09,1.20
2015,02,24,02,10,1.20
2015,02,24,02,11,1.20
2015,02,24,02,12,1.20
2015,02,24,02,13,1.20
2015,02,24,02,14,1.20
2015,02,24,02,15,1.30
2015,02,24,02,16,1.30
2015,02,24,02,17,1.30
2015,02,24,02,18,1.30
2015,02,24,02,19,1.30
2015,02,24,02,20,1.30
2015,02,24,02,21,1.30
2015,02,24,02,22,1.30
2015,02,24,02,23,1.30
2015,02,24,02,24,1.30
2015,02,24,02,25,1.20
2015,02,24,02,26,1.20
2015,02,24,02,27,1.20
2015,02,24,02,28,1.20
2015,02,24,02,29,1.20
2015,02,24,02,30,1.20
2015,02,24,02,31,1.20
2015,02,24,02,32,1.20
2015,02,24,02,33,1.20
2015,02,24,02,34,1.20
2015,02,24,02,35,1.20
2015,02,24,02,36,1.30
2015,02,24,02,37,1.30
2015,02,24,02,38,1.30
2015,02,24,02,39,1.30
2015,02,24,02,40,1.30
2015,02,24,02,41,1.30
2015,02,24,02,42,1.30
2015,02,24,02,43,1.40
2015,02,24,02,44,1.40
2015,02,24,02,45,1.50
2015,02,24,02,46,1.50
2015,02,24,02,47,1.60
2015,02,24,02,48,1.60
2015,02,24,02,49,1.60
2015,02,24,02,50,1.50
2015,02,24,02,51,1.50
2015,02,24,02,52,1.40
2015,02,24,02,53,1.40
2015,02,24,02,54,1.40
2015,02,24,02,55,1.40
2015,02,24,02,56,1.50
2015,02,24,02,57,1.50
2015,02,24,02,58,1.50
2015,02,24,02,59,1.60
2015,02,24,03,00,1.70
2015,02,24,03,01,1.70
2015,02,24,03,02,1.70
2015,02,24,03,03,1.70
2015,02,24,03,04,1.80
2015,02,24,03,05,1.80
2015,02,24,03,06,1.80
2015,02,24,03,07,1.70
2015,02,24,03,08,1.70
2015,02,24,03,09,1.70
2015,02,24,03,10,1.70
2015,02,24,03,11,1.70
2015,02,24,03,12,1.70
2015,02,24,03,13,1.70
2015,02,24,03,14,1.70
2015,02,24,03,15,1.70
2015,02,24,03,16,1.70
2015,02,24,03,17,1.70
2015,02,24,03,18,1.70
2015,02,24,03,19,1.70
2015,02,24,03,20,1.70
2015,02,24,03,21,1.70
2015,02,24,03,22,1.70
2015,02,24,03,23,1.70
2015,02,24,03,24,1.60
2015,02,24,03,25,1.50
2015,02,24,03,26,1.50
2015,02,24,03,27,1.40
2015,02,24,03,28,1.40
2015,02,24,03,29,1.40
2015,02,24,03,30,1.40
2015,02,24,03,31,1.40
2015,02,24,03,32,1.40
2015,02,24,03,33,1.40
2015,02,24,03,34,1.40
2015,02,24,03,35,1.40
2015,02,24,03,36,1.50
2015,02,24,03,37,1.50
2015,02,24,03,38,1.50
2015,02,24,03,39,1.50
2015,02,24,03,40,1.50
2015,02,24,03,41,1.40
2015,02,24,03,42,1.30
2015,02,24,03,43,1.30
2015,02,24,03,44,1.30
2015,02,24,03,45,1.30
2015,02,24,03,46,1.30
2015,02,24,03,47,1.30
2015,02,24,03,48,1.30
2015,02,24,03,49,1.30
2015,02,24,03,50,1.30
2015,02,24,03,51,1.30
2015,02,24,03,52,1.30
2015,02,24,03,53,1.40
2015,02,24,03,54,1.40
2015,02,24,03,55,1.40
2015,02,24,03,56,1.30
2015,02,24,03,57,1.30
2015,02,24,03,58,1.10
2015,02,24,03,59,1.00
2015,02,24,04,00,0.80
2015,02,24,04,01,0.70
2015,02,24,04,02,0.60
2015,02,24,04,03,0.50
2015,02,24,04,04,0.50
2015,02,24,04,05,0.40
2015,02,24,04,06,0.40
2015,02,24,04,07,0.40
2015,02,24,04,08,0.40
2015,02,24,04,09,0.40
2015,02,24,04,10,0.50
2015,02,24,04,11,0.50
2015,02,24,04,12,0.50
2015,02,24,04,13,0.50
2015,02,24,04,14,0.40
2015,02,24,04,15,0.40
2015,02,24,04,16,0.40
2015,02,24,04,17,0.30
2015,02,24,04,18,0.30
2015,02,24,04,19,0.20
2015,02,24,04,20,0.20
2015,02,24,04,21,0.20
2015,02,24,04,22,0.20
2015,02,24,04,23,0.20
2015,02,24,04,24,0.20
2015,02,24,04,25,0.20
2015,02,24,04,26,0.20
2015,02,24,04,27,0.10
2015,02,24,04,28,0.10
2015,02,24,04,29,0.10
2015,02,24,04,30,0.10
2015,02,24,04,31,0.10
2015,02,24,04,32,0.10
2015,02,24,04,33,0.10
2015,02,24,04,34,0.10
2015,02,24,04,35,0.10
2015,02,24,04,36,0.10
2015,02,24,04,37,0.10
2015,02,24,04,38,0.00
2015,02,24,04,39,-0.10
2015,02,24,04,40,-0.10
2015,02,24,04,41,-0.10
2015,02,24,04,42,-0.10
2015,02,24,04,43,-0.10
2015,02,24,04,44,-0.10
2015,02,24,04,45,-0.10
2015,02,24,04,46,-0.10
2015,02,24,04,47,-0.10
2015,02,24,04,48,-0.10
2015,02,24,04,49,-0.10
2015,02,24,04,50,-0.20
2015,02,24,04,51,-0.20
2015,02,24,04,52,-0.20
2015,02,24,04,53,-0.20
2015,02,24,04,54,-0.20
2015,02,24,04,55,-0.20
2015,02,24,04,56,-0.20
2015,02,24,04,57,-0.20
2015,02,24,04,58,-0.30
2015,02,24,04,59,-0.20
2015,02,24,05,00,-0.20
2015,02,24,05,01,-0.20
2015,02,24,05,02,-0.10
2015,02,24,05,03,-0.10
2015,02,24,05,04,0.00
2015,02,24,05,05,0.10
2015,02,24,05,06,0.10
2015,02,24,05,07,0.10
2015,02,24,05,08,0.10
2015,02,24,05,09,0.10
2015,02,24,05,10,0.20
2015,02,24,05,11,0.30
2015,02,24,05,12,0.30
2015,02,24,05,13,0.30
2015,02,24,05,14,0.30
2015,02,24,05,15,0.40
2015,02,24,05,16,0.40
2015,02,24,05,17,0.40
2015,02,24,05,18,0.40
2015,02,24,05,19,0.40
2015,02,24,05,20,0.40
2015,02,24,05,21,0.40
2015,02,24,05,22,0.40
2015,02,24,05,23,0.40
2015,02,24,05,24,0.40
2015,02,24,05,25,0.40
2015,02,24,05,26,0.40
2015,02,24,05,27,0.40
2015,02,24,05,28,0.40
2015,02,24,05,29,0.40
2015,02,24,05,30,0.40
2015,02,24,05,31,0.40
2015,02,24,05,32,0.40
2015,02,24,05,33,0.40
2015,02,24,05,34,0.40
2015,02,24,05,35,0.40
2015,02,24,05,36,0.40
2015,02,24,05,37,0.40
2015,02,24,05,38,0.40
2015,02,24,05,39,0.40
2015,02,24,05,40,0.30
2015,02,24,05,41,0.20
2015,02,24,05,42,0.20
2015,02,24,05,43,0.20
2015,02,24,05,44,0.20
2015,02,24,05,45,0.20
2015,02,24,05,46,0.20
2015,02,24,05,47,0.30
2015,02,24,05,48,0.40
2015,02,24,05,49,0.40
2015,02,24,05,50,0.40
2015,02,24,05,51,0.40
2015,02,24,05,52,0.40
2015,02,24,05,53,0.40
2015,02,24,05,54,0.40
2015,02,24,05,55,0.40
2015,02,24,05,56,0.40
2015,02,24,05,57,0.40
2015,02,24,05,58,0.40
2015,02,24,05,59,0.40
2015,02,24,06,00,0.30
2015,02,24,06,01,0.30
2015,02,24,06,02,0.30
2015,02,24,06,03,0.20
2015,02,24,06,04,0.10
2015,02,24,06,05,0.00
2015,02,24,06,06,-0.10
2015,02,24,06,07,-0.10
2015,02,24,06,08,-0.20
2015,02,24,06,09,-0.30
2015,02,24,06,10,-0.30
2015,02,24,06,11,-0.30
2015,02,24,06,12,-0.30
2015,02,24,06,13,-0.30
2015,02,24,06,14,-0.30
2015,02,24,06,15,-0.30
2015,02,24,06,16,-0.30
2015,02,24,06,17,-0.40
2015,02,24,06,18,-0.40
2015,02,24,06,19,-0.40
2015,02,24,06,20,-0.40
2015,02,24,06,21,-0.40
2015,02,24,06,22,-0.40
2015,02,24,06,23,-0.40
2015,02,24,06,24,-0.40
2015,02,24,06,25,-0.40
2015,02,24,06,26,-0.40
2015,02,24,06,27,-0.40
2015,02,24,06,28,-0.50
2015,02,24,06,29,-0.60
2015,02,24,06,30,-0.60
2015,02,24,06,31,-0.60
2015,02,24,06,32,-0.60
2015,02,24,06,33,-0.60
2015,02,24,06,34,-0.40
2015,02,24,06,35,-0.40
2015,02,24,06,36,-0.40
2015,02,24,06,37,-0.40
2015,02,24,06,38,-0.40
2015,02,24,06,39,-0.40
2015,02,24,06,40,-0.40
2015,02,24,06,41,-0.40
2015,02,24,06,42,-0.50
2015,02,24,06,43,-0.50
2015,02,24,06,44,-0.40
2015,02,24,06,45,-0.40
2015,02,24,06,46,-0.40
2015,02,24,06,47,-0.40
2015,02,24,06,48,-0.40
2015,02,24,06,49,-0.30
2015,02,24,06,50,-0.20
2015,02,24,06,51,-0.10
2015,02,24,06,52,-0.10
2015,02,24,06,53,-0.10
2015,02,24,06,54,-0.10
2015,02,24,06,55,-0.10
2015,02,24,06,56,-0.10
2015,02,24,06,57,-0.10
2015,02,24,06,58,-0.20
2015,02,24,06,59,-0.20
2015,02,24,07,00,-0.10
2015,02,24,07,01,-0.10
2015,02,24,07,02,-0.10
2015,02,24,07,03,-0.10
2015,02,24,07,04,-0.10
2015,02,24,07,05,-0.10
2015,02,24,07,06,-0.10
2015,02,24,07,07,-0.10
2015,02,24,07,08,0.00
2015,02,24,07,09,0.10
2015,02,24,07,10,0.10
2015,02,24,07,11,0.10
2015,02,24,07,12,0.10
2015,02,24,07,13,0.10
2015,02,24,07,14,0.10
2015,02,24,07,15,0.00
2015,02,24,07,16,-0.10
2015,02,24,07,17,-0.10
2015,02,24,07,18,-0.20
2015,02,24,07,19,-0.20
2015,02,24,07,20,-0.30
2015,02,24,07,21,-0.30
2015,02,24,07,22,-0.30
2015,02,24,07,23,-0.40
2015,02,24,07,24,-0.40
2015,02,24,07,25,-0.40
2015,02,24,07,26,-0.40
2015,02,24,07,27,-0.40
2015,02,24,07,28,-0.30
2015,02,24,07,29,-0.30
2015,02,24,07,30,-0.20
2015,02,24,07,31,-0.20
2015,02,24,07,32,-0.10
2015,02,24,07,33,-0.10
2015,02,24,07,34,0.00
2015,02,24,07,35,0.10
2015,02,24,07,36,0.10
2015,02,24,07,37,0.10
2015,02,24,07,38,0.20
2015,02,24,07,39,0.30
2015,02,24,07,40,0.30
2015,02,24,07,41,0.40
2015,02,24,07,42,0.40
2015,02,24,07,43,0.50
2015,02,24,07,44,0.60
2015,02,24,07,45,0.70
2015,02,24,07,46,0.70
2015,02,24,07,47,0.80
2015,02,24,07,48,0.80
2015,02,24,07,49,0.90
2015,02,24,07,50,0.90
2015,02,24,07,51,0.90
2015,02,24,07,52,0.80
2015,02,24,07,53,0.70
2015,02,24,07,54,0.60
2015,02,24,07,55,0.60
2015,02,24,07,56,0.50
2015,02,24,07,57,0.50
2015,02,24,07,58,0.50
2015,02,24,07,59,0.50
2015,02,24,08,00,0.50
2015,02,24,08,01,0.50
2015,02,24,08,02,0.50
2015,02,24,08,03,0.50
2015,02,24,08,04,0.50
2015,02,24,08,05,0.60
2015,02,24,08,06,0.60
2015,02,24,08,07,0.70
2015,02,24,08,08,0.80
2015,02,24,08,09,0.80
2015,02,24,08,10,0.90
2015,02,24,08,11,1.00
2015,02,24,08,12,1.10
2015,02,24,08,13,1.30
2015,02,24,08,14,1.40
2015,02,24,08,15,1.40
2015,02,24,08,16,1.40
2015,02,24,08,17,1.30
2015,02,24,08,18,1.30
2015,02,24,08,19,1.30
2015,02,24,08,20,1.30
2015,02,24,08,21,1.20
2015,02,24,08,22,1.10
2015,02,24,08,23,1.10
2015,02,24,08,24,1.00
2015,02,24,08,25,0.90
2015,02,24,08,26,0.80
2015,02,24,08,27,0.80
2015,02,24,08,28,0.90
2015,02,24,08,29,0.90
2015,02,24,08,30,1.00
2015,02,24,08,31,1.10
2015,02,24,08,32,1.10
2015,02,24,08,33,1.20
2015,02,24,08,34,1.20
2015,02,24,08,35,1.20
2015,02,24,08,36,1.20
2015,02,24,08,37,1.20
2015,02,24,08,38,1.20
2015,02,24,08,39,1.20
2015,02,24,08,40,1.30
2015,02,24,08,41,1.30
2015,02,24,08,42,1.30
2015,02,24,08,43,1.40
2015,02,24,08,44,1.50
2015,02,24,08,45,1.60
2015,02,24,08,46,1.70
2015,02,24,08,47,1.90
2015,02,24,08,48,2.00
2015,02,24,08,49,2.20
2015,02,24,08,50,2.30
2015,02,24,08,51,2.40
2015,02,24,08,52,2.60
2015,02,24,08,53,2.70
2015,02,24,08,54,2.90
2015,02,24,08,55,3.10
2015,02,24,08,56,3.30
2015,02,24,08,57,3.50
2015,02,24,08,58,3.60
2015,02,24,08,59,3.70
2015,02,24,09,00,3.80
2015,02,24,09,01,3.80
2015,02,24,09,02,4.00
2015,02,24,09,03,4.00
2015,02,24,09,04,4.10
2015,02,24,09,05,4.20
2015,02,24,09,06,4.20
2015,02,24,09,07,4.30
2015,02,24,09,08,4.30
2015,02,24,09,09,4.40
2015,02,24,09,10,4.40
2015,02,24,09,11,4.40
2015,02,24,09,12,4.40
2015,02,24,09,13,4.50
2015,02,24,09,14,4.50
2015,02,24,09,15,4.50
2015,02,24,09,16,4.50
2015,02,24,09,17,4.50
2015,02,24,09,18,4.50
2015,02,24,09,19,4.50
2015,02,24,09,20,4.50
2015,02,24,09,21,4.50
2015,02,24,09,22,4.60
2015,02,24,09,23,4.60
2015,02,24,09,24,4.70
2015,02,24,09,25,4.80
2015,02,24,09,26,4.90
2015,02,24,09,27,5.10
2015,02,24,09,28,5.10
2015,02,24,09,29,5.20
2015,02,24,09,30,5.30
2015,02,24,09,31,5.40
2015,02,24,09,32,5.50
2015,02,24,09,33,5.60
2015,02,24,09,34,5.70
2015,02,24,09,35,5.70
2015,02,24,09,36,5.80
2015,02,24,09,37,5.90
2015,02,24,09,38,6.00
2015,02,24,09,39,6.00
2015,02,24,09,40,6.10
2015,02,24,09,41,6.20
2015,02,24,09,42,6.20
2015,02,24,09,43,6.30
2015,02,24,09,44,6.40
2015,02,24,09,45,6.40
2015,02,24,09,46,6.50
2015,02,24,09,47,6.60
2015,02,24,09,48,6.60
2015,02,24,09,49,6.70
2015,02,24,09,50,6.80
2015,02,24,09,51,6.80
2015,02,24,09,52,6.80
2015,02,24,09,53,6.90
2015,02,24,09,54,7.00
2015,02,24,09,55,7.00
2015,02,24,09,56,7.00
2015,02,24,09,57,7.10
2015,02,24,09,58,7.10
2015,02,24,09,59,7.20
2015,02,24,10,00,7.30
2015,02,24,10,01,7.40
2015,02,24,10,02,7.50
2015,02,24,10,03,7.60
2015,02,24,10,04,7.70
2015,02,24,10,05,7.80
2015,02,24,10,06,7.80
2015,02,24,10,07,7.90
2015,02,24,10,08,7.90
2015,02,24,10,09,8.00
2015,02,24,10,10,8.10
2015,02,24,10,11,8.10
2015,02,24,10,12,8.20
2015,02,24,10,13,8.10
2015,02,24,10,14,8.00
2015,02,24,10,15,8.00
2015,02,24,10,16,8.00
2015,02,24,10,17,8.00
2015,02,24,10,18,8.10
2015,02,24,10,19,8.10
2015,02,24,10,20,8.10
2015,02,24,10,21,8.10
2015,02,24,10,22,8.10
2015,02,24,10,23,8.20
2015,02,24,10,24,8.10
2015,02,24,10,25,8.10
2015,02,24,10,26,8.00
2015,02,24,10,27,7.90
2015,02,24,10,28,7.80
2015,02,24,10,29,7.70
2015,02,24,10,30,7.60
2015,02,24,10,31,7.60
2015,02,24,10,32,7.50
2015,02,24,10,33,7.40
2015,02,24,10,34,7.40
2015,02,24,10,35,7.30
2015,02,24,10,36,7.30
2015,02,24,10,37,7.20
2015,02,24,10,38,7.10
2015,02,24,10,39,7.10
2015,02,24,10,40,7.00
2015,02,24,10,41,7.00
2015,02,24,10,42,7.00
2015,02,24,10,43,7.00
2015,02,24,10,44,7.00
2015,02,24,10,45,7.00
2015,02,24,10,46,7.00
2015,02,24,10,47,7.00
2015,02,24,10,48,7.00
2015,02,24,10,49,7.00
2015,02,24,10,50,7.00
2015,02,24,10,51,7.00
2015,02,24,10,52,7.00
2015,02,24,10,53,6.90
2015,02,24,10,54,6.90
2015,02,24,10,55,6.90
2015,02,24,10,56,6.80
2015,02,24,10,57,6.80
2015,02,24,10,58,6.80
2015,02,24,10,59,6.80
2015,02,24,11,00,6.80
2015,02,24,11,01,6.80
2015,02,24,11,02,6.80
2015,02,24,11,03,6.80
2015,02,24,11,04,6.70
2015,02,24,11,05,6.70
2015,02,24,11,06,6.70
2015,02,24,11,07,6.60
2015,02,24,11,08,6.60
2015,02,24,11,09,6.60
2015,02,24,11,10,6.60
2015,02,24,11,11,6.60
2015,02,24,11,12,6.60
2015,02,24,11,13,6.70
2015,02,24,11,14,6.70
2015,02,24,11,15,6.70
2015,02,24,11,16,6.70
2015,02,24,11,17,6.70
2015,02,24,11,18,6.80
2015,02,24,11,19,6.80
2015,02,24,11,20,6.80
2015,02,24,11,21,6.80
2015,02,24,11,22,6.80
2015,02,24,11,23,6.80
2015,02,24,11,24,6.80
2015,02,24,11,25,6.80
2015,02,24,11,26,6.90
2015,02,24,11,27,6.90
2015,02,24,11,28,6.90
2015,02,24,11,29,6.80
2015,02,24,11,30,6.80
2015,02,24,11,31,6.80
2015,02,24,11,32,6.80
2015,02,24,11,33,6.80
2015,02,24,11,34,6.90
2015,02,24,11,35,6.90
2015,02,24,11,36,7.00
2015,02,24,11,37,7.00
2015,02,24,11,38,7.00
2015,02,24,11,39,7.00
2015,02,24,11,40,7.00
2015,02,24,11,41,7.00
2015,02,24,11,42,7.00
2015,02,24,11,43,7.10
2015,02,24,11,44,7.10
2015,02,24,11,45,7.10
2015,02,24,11,46,7.10
2015,02,24,11,47,7.10
2015,02,24,11,48,7.20
2015,02,24,11,49,7.20
2015,02,24,11,50,7.20
2015,02,24,11,51,7.30
2015,02,24,11,52,7.30
2015,02,24,11,53,7.30
2015,02,24,11,54,7.30
2015,02,24,11,55,7.30
2015,02,24,11,56,7.30
2015,02,24,11,57,7.30
2015,02,24,11,58,7.30
2015,02,24,11,59,7.40
2015,02,24,12,00,7.40
2015,02,24,12,01,7.50
2015,02,24,12,02,7.50
2015,02,24,12,03,7.50
2015,02,24,12,04,7.60
2015,02,24,12,05,7.60
2015,02,24,12,06,7.60
2015,02,24,12,07,7.60
2015,02,24,12,08,7.70
2015,02,24,12,09,7.70
2015,02,24,12,10,7.70
2015,02,24,12,11,7.70
2015,02,24,12,12,7.70
2015,02,24,12,13,7.70
2015,02,24,12,14,7.70
2015,02,24,12,15,7.70
2015,02,24,12,16,7.80
2015,02,24,12,17,7.80
2015,02,24,12,18,7.80
2015,02,24,12,19,7.90
2015,02,24,12,20,7.90
2015,02,24,12,21,7.90
2015,02,24,12,22,7.90
2015,02,24,12,23,7.90
2015,02,24,12,24,7.90
2015,02,24,12,25,7.90
2015,02,24,12,26,7.90
2015,02,24,12,27,7.90
2015,02,24,12,28,7.90
2015,02,24,12,29,7.90
2015,02,24,12,30,7.90
2015,02,24,12,31,7.90
2015,02,24,12,32,7.90
2015,02,24,12,33,7.90
2015,02,24,12,34,7.90
2015,02,24,12,35,7.90
2015,02,24,12,36,8.00
2015,02,24,12,37,8.00
2015,02,24,12,38,8.10
2015,02,24,12,39,8.20
2015,02,24,12,40,8.20
2015,02,24,12,41,8.20
2015,02,24,12,42,8.20
2015,02,24,12,43,8.20
2015,02,24,12,44,8.20
2015,02,24,12,45,8.20
2015,02,24,12,46,8.20
2015,02,24,12,47,8.10
2015,02,24,12,48,8.10
2015,02,24,12,49,8.00
2015,02,24,12,50,8.00
2015,02,24,12,51,8.00
2015,02,24,12,52,7.90
2015,02,24,12,53,7.90
2015,02,24,12,54,7.90
2015,02,24,12,55,7.90
2015,02,24,12,56,7.90
2015,02,24,12,57,7.90
2015,02,24,12,58,7.80
2015,02,24,12,59,7.80
2015,02,24,13,00,7.80
2015,02,24,13,01,7.80
2015,02,24,13,02,7.80
2015,02,24,13,03,7.80
2015,02,24,13,04,7.80
2015,02,24,13,05,7.80
2015,02,24,13,06,7.90
2015,02,24,13,07,7.90
2015,02,24,13,08,7.90
2015,02,24,13,09,7.90
2015,02,24,13,10,7.90
2015,02,24,13,11,8.00
2015,02,24,13,12,8.00
2015,02,24,13,13,7.90
2015,02,24,13,14,7.90
2015,02,24,13,15,8.00
2015,02,24,13,16,8.00
2015,02,24,13,17,8.00
2015,02,24,13,18,8.00
2015,02,24,13,19,7.90
2015,02,24,13,20,7.90
2015,02,24,13,21,7.90
2015,02,24,13,22,7.90
2015,02,24,13,23,7.80
2015,02,24,13,24,7.80
2015,02,24,13,25,7.80
2015,02,24,13,26,7.90
2015,02,24,13,27,7.90
2015,02,24,13,28,8.00
2015,02,24,13,29,8.00
2015,02,24,13,30,8.00
2015,02,24,13,31,7.90
2015,02,24,13,32,7.90
2015,02,24,13,33,8.00
2015,02,24,13,34,8.00
2015,02,24,13,35,8.00
2015,02,24,13,36,8.10
2015,02,24,13,37,8.10
2015,02,24,13,38,8.10
2015,02,24,13,39,8.20
2015,02,24,13,40,8.20
2015,02,24,13,41,8.20
2015,02,24,13,42,8.20
2015,02,24,13,43,8.20
2015,02,24,13,44,8.20
2015,02,24,13,45,8.20
2015,02,24,13,46,8.20
2015,02,24,13,47,8.20
2015,02,24,13,48,8.20
2015,02,24,13,49,8.20
2015,02,24,13,50,8.30
2015,02,24,13,51,8.30
2015,02,24,13,52,8.40
2015,02,24,13,53,8.40
2015,02,24,13,54,8.40
2015,02,24,13,55,8.40
2015,02,24,13,56,8.40
2015,02,24,13,57,8.30
2015,02,24,13,58,8.30
2015,02,24,13,59,8.30
2015,02,24,14,00,8.30
2015,02,24,14,01,8.30
2015,02,24,14,02,8.30
2015,02,24,14,03,8.30
2015,02,24,14,04,8.30
2015,02,24,14,05,8.30
2015,02,24,14,06,8.30
2015,02,24,14,07,8.30
2015,02,24,14,08,8.40
2015,02,24,14,09,8.40
2015,02,24,14,10,8.40
2015,02,24,14,11,8.40
2015,02,24,14,12,8.40
2015,02,24,14,13,8.40
2015,02,24,14,14,8.40
2015,02,24,14,15,8.40
2015,02,24,14,16,8.40
2015,02,24,14,17,8.50
2015,02,24,14,18,8.50
2015,02,24,14,19,8.60
2015,02,24,14,20,8.70
2015,02,24,14,21,8.70
2015,02,24,14,22,8.70
2015,02,24,14,23,8.70
2015,02,24,14,24,8.70
2015,02,24,14,25,8.70
2015,02,24,14,26,8.70
2015,02,24,14,27,8.70
2015,02,24,14,28,8.70
2015,02,24,14,29,8.70
2015,02,24,14,30,8.70
2015,02,24,14,31,8.70
2015,02,24,14,32,8.60
2015,02,24,14,33,8.60
2015,02,24,14,34,8.50
2015,02,24,14,35,8.50
2015,02,24,14,36,8.50
2015,02,24,14,37,8.40
2015,02,24,14,38,8.30
2015,02,24,14,39,8.20
2015,02,24,14,40,8.20
2015,02,24,14,41,8.30
2015,02,24,14,42,8.30
2015,02,24,14,43,8.40
2015,02,24,14,44,8.50
2015,02,24,14,45,8.60
2015,02,24,14,46,8.70
2015,02,24,14,47,8.70
2015,02,24,14,48,8.70
2015,02,24,14,49,8.70
2015,02,24,14,50,8.70
2015,02,24,14,51,8.80
2015,02,24,14,52,8.80
2015,02,24,14,53,8.80
2015,02,24,14,54,8.80
2015,02,24,14,55,8.90
2015,02,24,14,56,8.90
2015,02,24,14,57,8.90
2015,02,24,14,58,9.00
2015,02,24,14,59,8.90
2015,02,24,15,00,8.90
2015,02,24,15,01,8.80
2015,02,24,15,02,8.90
2015,02,24,15,03,8.90
2015,02,24,15,04,8.80
2015,02,24,15,05,8.80
2015,02,24,15,06,8.70
2015,02,24,15,07,8.70
2015,02,24,15,08,8.70
2015,02,24,15,09,8.60
2015,02,24,15,10,8.60
2015,02,24,15,11,8.60
2015,02,24,15,12,8.60
2015,02,24,15,13,8.60
2015,02,24,15,14,8.70
2015,02,24,15,15,8.70
2015,02,24,15,16,8.70
2015,02,24,15,17,8.80
2015,02,24,15,18,8.80
2015,02,24,15,19,8.90
2015,02,24,15,20,8.90
2015,02,24,15,21,8.90
2015,02,24,15,22,9.00
2015,02,24,15,23,9.10
2015,02,24,15,24,9.10
2015,02,24,15,25,9.10
2015,02,24,15,26,9.20
2015,02,24,15,27,9.20
2015,02,24,15,28,9.20
2015,02,24,15,29,9.30
2015,02,24,15,30,9.30
2015,02,24,15,31,9.30
2015,02,24,15,32,9.30
2015,02,24,15,33,9.30
2015,02,24,15,34,9.30
2015,02,24,15,35,9.30
2015,02,24,15,36,9.30
2015,02,24,15,37,9.30
2015,02,24,15,38,9.30
2015,02,24,15,39,9.30
2015,02,24,15,40,9.30
2015,02,24,15,41,9.30
2015,02,24,15,42,9.30
2015,02,24,15,43,9.30
2015,02,24,15,44,9.30
2015,02,24,15,45,9.30
2015,02,24,15,46,9.30
2015,02,24,15,47,9.30
2015,02,24,15,48,9.30
2015,02,24,15,49,9.30
2015,02,24,15,50,9.30
2015,02,24,15,51,9.30
2015,02,24,15,52,9.30
2015,02,24,15,53,9.20
2015,02,24,15,54,9.20
2015,02,24,15,55,9.20
2015,02,24,15,56,9.20
2015,02,24,15,57,9.20
2015,02,24,15,58,9.20
2015,02,24,15,59,9.10
2015,02,24,16,00,9.00
2015,02,24,16,01,9.00
2015,02,24,16,02,8.90
2015,02,24,16,03,8.90
2015,02,24,16,04,8.80
2015,02,24,16,05,8.80
2015,02,24,16,06,8.80
2015,02,24,16,07,8.80
2015,02,24,16,08,8.80
2015,02,24,16,09,8.80
2015,02,24,16,10,8.80
2015,02,24,16,11,8.80
2015,02,24,16,12,8.80
2015,02,24,16,13,8.80
2015,02,24,16,14,8.80
2015,02,24,16,15,8.80
2015,02,24,16,16,8.80
2015,02,24,16,17,8.80
2015,02,24,16,18,8.80
2015,02,24,16,19,8.80
2015,02,24,16,20,8.90
2015,02,24,16,21,8.80
2015,02,24,16,22,8.80
2015,02,24,16,23,8.80
2015,02,24,16,24,8.80
2015,02,24,16,25,8.80
2015,02,24,16,26,8.80
2015,02,24,16,27,8.80
2015,02,24,16,28,8.80
2015,02,24,16,29,8.90
2015,02,24,16,30,8.90
2015,02,24,16,31,8.90
2015,02,24,16,32,8.90
2015,02,24,16,33,8.90
2015,02,24,16,34,8.90
2015,02,24,16,35,8.90
2015,02,24,16,36,8.90
2015,02,24,16,37,8.90
2015,02,24,16,38,8.90
2015,02,24,16,39,8.90
2015,02,24,16,40,8.90
2015,02,24,16,41,8.90
2015,02,24,16,42,8.90
2015,02,24,16,43,8.90
2015,02,24,16,44,8.90
2015,02,24,16,45,8.90
2015,02,24,16,46,8.90
2015,02,24,16,47,8.90
2015,02,24,16,48,8.90
2015,02,24,16,49,8.90
2015,02,24,16,50,8.90
2015,02,24,16,51,8.90
2015,02,24,16,52,8.90
2015,02,24,16,53,8.90
2015,02,24,16,54,8.90
2015,02,24,16,55,8.90
2015,02,24,16,56,8.90
2015,02,24,16,57,8.90
2015,02,24,16,58,8.90
2015,02,24,16,59,8.90
2015,02,24,17,00,8.90
2015,02,24,17,01,8.80
2015,02,24,17,02,8.80
2015,02,24,17,03,8.70
2015,02,24,17,04,8.70
2015,02,24,17,05,8.70
2015,02,24,17,06,8.70
2015,02,24,17,07,8.70
2015,02,24,17,08,8.70
2015,02,24,17,09,8.70
2015,02,24,17,10,8.70
2015,02,24,17,11,8.60
2015,02,24,17,12,8.60
2015,02,24,17,13,8.60
2015,02,24,17,14,8.50
2015,02,24,17,15,8.50
2015,02,24,17,16,8.50
2015,02,24,17,17,8.40
2015,02,24,17,18,8.40
2015,02,24,17,19,8.30
2015,02,24,17,20,8.30
2015,02,24,17,21,8.20
2015,02,24,17,22,8.20
2015,02,24,17,23,8.10
2015,02,24,17,24,8.10
2015,02,24,17,25,8.00
2015,02,24,17,26,8.00
2015,02,24,17,27,7.90
2015,02,24,17,28,7.90
2015,02,24,17,29,7.80
2015,02,24,17,30,7.80
2015,02,24,17,31,7.80
2015,02,24,17,32,7.70
2015,02,24,17,33,7.70
2015,02,24,17,34,7.70
2015,02,24,17,35,7.60
2015,02,24,17,36,7.60
2015,02,24,17,37,7.60
2015,02,24,17,38,7.50
2015,02,24,17,39,7.50
2015,02,24,17,40,7.50
2015,02,24,17,41,7.40
2015,02,24,17,42,7.40
2015,02,24,17,43,7.30
2015,02,24,17,44,7.30
2015,02,24,17,45,7.30
2015,02,24,17,46,7.30
2015,02,24,17,47,7.20
2015,02,24,17,48,7.20
2015,02,24,17,49,7.20
2015,02,24,17,50,7.10
2015,02,24,17,51,7.10
2015,02,24,17,52,7.10
2015,02,24,17,53,7.00
2015,02,24,17,54,7.00
2015,02,24,17,55,7.00
2015,02,24,17,56,7.00
2015,02,24,17,57,6.90
2015,02,24,17,58,6.90
2015,02,24,17,59,6.90
2015,02,24,18,00,6.80
2015,02,24,18,01,6.80